| time (UTC) | temp C | wind direction | speed KPH | gust KPH | rain 1hr cm | rain 24hr cm | rain mn cm | humidity % | barometer mb |
| 20260906122932 | 17 | 219 | 0.0 | 0.0 | 0.00 | 0.00 | 0.00 | 99 | 1016.0 |
| 20260906122427 | 17 | 257 | 0.0 | 0.0 | 0.00 | 0.00 | 0.00 | 99 | 1016.0 |
| 20260906121925 | 17 | 84 | 0.0 | 0.0 | 0.00 | 0.00 | 0.00 | 99 | 1016.0 |
| 20260906121420 | 17 | 88 | 0.0 | 0.0 | 0.00 | 0.00 | 0.00 | 99 | 1015.6 |
| 20260906120917 | 17 | 57 | 0.0 | 0.0 | 0.00 | 0.00 | 0.00 | 99 | 1015.4 |
| 20260906120412 | 17 | 241 | 0.0 | 0.0 | 0.00 | 0.00 | 0.00 | 99 | 1015.4 |
| 20260906115908 | 17 | 19 | 0.0 | 0.0 | 0.00 | 0.00 | 0.00 | 99 | 1015.7 |
| 20260906115403 | 17 | 154 | 0.0 | 0.0 | 0.00 | 0.00 | 0.00 | 99 | 1015.6 |
| 20260906114902 | 16 | 256 | 0.0 | 0.0 | 0.00 | 0.00 | 0.00 | 99 | 1015.6 |
| 20260906114357 | 16 | 303 | 0.0 | 0.0 | 0.00 | 0.00 | 0.00 | 99 | 1015.3 |
| 20260906113853 | 16 | 252 | 0.0 | 0.0 | 0.00 | 0.00 | 0.00 | 99 | 1015.4 |
| 20260906113352 | 16 | 181 | 0.0 | 0.0 | 0.00 | 0.00 | 0.00 | 99 | 1015.4 |
| 20260906112848 | 16 | 181 | 0.0 | 0.0 | 0.00 | 0.00 | 0.00 | 99 | 1015.4 |
| 20260906112344 | 16 | 175 | 0.0 | 0.0 | 0.00 | 0.00 | 0.00 | 99 | 1015.2 |
| 20260906111844 | 16 | 144 | 0.0 | 0.0 | 0.00 | 0.00 | 0.00 | 99 | 1015.0 |
| 20260906111343 | 16 | 134 | 0.0 | 0.0 | 0.00 | 0.00 | 0.00 | 99 | 1015.0 |
| 20260906110838 | 16 | 245 | 0.0 | 0.0 | 0.00 | 0.00 | 0.00 | 99 | 1014.9 |
| 20260906110334 | 16 | 251 | 0.0 | 0.0 | 0.00 | 0.00 | 0.00 | 99 | 1014.9 |
| 20260906105833 | 16 | 251 | 0.0 | 0.0 | 0.00 | 0.00 | 0.00 | 99 | 1014.9 |
| 20260906105329 | 16 | 261 | 0.0 | 0.0 | 0.00 | 0.00 | 0.00 | 99 | 1014.6 |
| 20260906104824 | 16 | 258 | 0.0 | 0.0 | 0.00 | 0.00 | 0.00 | 99 | 1014.5 |
| 20260906104323 | 16 | 233 | 0.0 | 0.0 | 0.00 | 0.00 | 0.00 | 99 | 1014.8 |
| 20260906103822 | 16 | 267 | 0.0 | 0.0 | 0.00 | 0.00 | 0.00 | 99 | 1014.7 |
| 20260906103320 | 16 | 270 | 0.0 | 0.0 | 0.00 | 0.00 | 0.00 | 99 | 1014.8 |
| 20260906102816 | 16 | 210 | 0.0 | 0.0 | 0.00 | 0.00 | 0.00 | 99 | 1014.7 |
| 20260906102315 | 16 | 210 | 0.0 | 0.0 | 0.00 | 0.00 | 0.00 | 99 | 1014.7 |
| 20260906101811 | 16 | 148 | 0.0 | 0.0 | 0.00 | 0.00 | 0.00 | 99 | 1014.7 |
| 20260906101306 | 16 | 147 | 0.0 | 0.0 | 0.00 | 0.00 | 0.00 | 99 | 1014.4 |
| 20260906100801 | 16 | 194 | 0.0 | 0.0 | 0.00 | 0.00 | 0.00 | 99 | 1014.6 |
| 20260906100300 | 16 | 144 | 0.0 | 0.0 | 0.00 | 0.00 | 0.00 | 99 | 1014.4 |
| 20260906095756 | 16 | 187 | 0.0 | 0.0 | 0.00 | 0.00 | 0.00 | 99 | 1014.4 |
| 20260906095251 | 16 | 159 | 0.0 | 0.0 | 0.00 | 0.00 | 0.00 | 99 | 1014.5 |
| 20260906094750 | 16 | 181 | 0.0 | 0.0 | 0.00 | 0.00 | 0.00 | 99 | 1014.5 |
| 20260906094245 | 16 | 270 | 0.0 | 0.0 | 0.00 | 0.00 | 0.00 | 99 | 1014.4 |
| 20260906093741 | 16 | 288 | 0.0 | 0.0 | 0.00 | 0.00 | 0.00 | 99 | 1014.6 |
| 20260906093237 | 16 | 216 | 0.0 | 0.0 | 0.00 | 0.00 | 0.00 | 99 | 1014.5 |
| 20260906092732 | 16 | 268 | 0.0 | 0.0 | 0.00 | 0.00 | 0.00 | 99 | 1014.5 |
| 20260906092232 | 16 | 261 | 0.0 | 0.0 | 0.00 | 0.00 | 0.00 | 99 | 1014.4 |
| 20260906091728 | 16 | 269 | 0.0 | 0.0 | 0.00 | 0.00 | 0.00 | 99 | 1014.6 |
| 20260906091224 | 16 | 269 | 0.0 | 0.0 | 0.00 | 0.00 | 0.00 | 99 | 1014.6 |
| 20260906090720 | 16 | 277 | 0.0 | 0.0 | 0.00 | 0.00 | 0.00 | 99 | 1014.6 |
| 20260906090219 | 16 | 335 | 0.0 | 0.0 | 0.00 | 0.00 | 0.00 | 99 | 1014.6 |
| 20260906085718 | 16 | 358 | 0.0 | 0.0 | 0.00 | 0.00 | 0.00 | 99 | 1014.5 |
| 20260906085217 | 16 | 284 | 0.0 | 0.0 | 0.00 | 0.00 | 0.00 | 99 | 1014.6 |
| 20260906084713 | 16 | 299 | 0.0 | 0.0 | 0.00 | 0.00 | 0.00 | 99 | 1014.5 |
| 20260906084212 | 16 | 245 | 0.0 | 0.0 | 0.00 | 0.00 | 0.00 | 99 | 1014.8 |
| 20260906083708 | 16 | 269 | 0.0 | 0.0 | 0.00 | 0.00 | 0.00 | 99 | 1014.7 |
| 20260906083203 | 16 | 256 | 0.0 | 0.0 | 0.00 | 0.00 | 0.00 | 99 | 1014.5 |
| 20260906082658 | 16 | 325 | 0.0 | 0.0 | 0.00 | 0.00 | 0.00 | 99 | 1014.3 |
| 20260906082153 | 16 | 232 | 0.0 | 0.0 | 0.00 | 0.00 | 0.00 | 99 | 1014.6 |
| 20260906081649 | 16 | 216 | 0.0 | 0.0 | 0.00 | 0.00 | 0.00 | 99 | 1014.3 |
| 20260906081144 | 16 | 248 | 0.0 | 0.0 | 0.00 | 0.00 | 0.00 | 99 | 1014.6 |
| 20260906080640 | 16 | 252 | 0.0 | 0.0 | 0.00 | 0.00 | 0.00 | 99 | 1014.4 |
| 20260906080136 | 16 | 266 | 0.0 | 0.0 | 0.00 | 0.00 | 0.00 | 99 | 1014.4 |
| 20260906075630 | 16 | 266 | 0.0 | 0.0 | 0.00 | 0.00 | 0.00 | 99 | 1014.0 |
| 20260906075125 | 16 | 305 | 0.0 | 0.0 | 0.00 | 0.00 | 0.00 | 99 | 1013.9 |
| 20260906074620 | 16 | 228 | 0.0 | 0.0 | 0.00 | 0.00 | 0.00 | 99 | 1014.0 |
| 20260906074119 | 16 | 228 | 0.0 | 0.0 | 0.00 | 0.00 | 0.00 | 99 | 1014.3 |
| 20260906073614 | 16 | 228 | 0.0 | 0.0 | 0.00 | 0.00 | 0.00 | 99 | 1014.0 |
| 20260906073110 | 16 | 228 | 0.0 | 0.0 | 0.00 | 0.00 | 0.00 | 99 | 1014.2 |
| 20260906072604 | 16 | 227 | 0.0 | 0.0 | 0.00 | 0.00 | 0.00 | 99 | 1014.3 |
| 20260906072101 | 16 | 228 | 0.0 | 0.0 | 0.00 | 0.00 | 0.00 | 99 | 1014.4 |
| 20260906071557 | 16 | 228 | 0.0 | 0.0 | 0.00 | 0.00 | 0.00 | 99 | 1014.5 |
| 20260906071056 | 16 | 228 | 0.0 | 0.0 | 0.00 | 0.00 | 0.00 | 99 | 1014.5 |
| 20260906070553 | 16 | 314 | 0.0 | 0.0 | 0.00 | 0.00 | 0.00 | 99 | 1014.4 |
| 20260906070049 | 16 | 251 | 0.0 | 0.0 | 0.00 | 0.00 | 0.00 | 99 | 1014.6 |
| 20260906065548 | 16 | 251 | 0.0 | 0.0 | 0.00 | 0.00 | 0.00 | 99 | 1014.5 |
| 20260906065044 | 16 | 251 | 0.0 | 0.0 | 0.00 | 0.00 | 0.00 | 99 | 1014.4 |
| 20260906064540 | 16 | 251 | 0.0 | 0.0 | 0.00 | 0.00 | 0.00 | 99 | 1014.4 |
| 20260906064034 | 17 | 251 | 0.0 | 0.0 | 0.00 | 0.00 | 0.00 | 99 | 1014.4 |
| 20260906063530 | 17 | 251 | 0.0 | 0.0 | 0.00 | 0.00 | 0.00 | 99 | 1014.6 |
| 20260906063026 | 17 | 251 | 0.0 | 0.0 | 0.00 | 0.00 | 0.00 | 99 | 1014.7 |
| 20260906062521 | 17 | 251 | 0.0 | 0.0 | 0.00 | 0.00 | 0.00 | 99 | 1014.6 |
| 20260906062015 | 17 | 251 | 0.0 | 0.0 | 0.00 | 0.00 | 0.00 | 99 | 1014.5 |
| 20260906061512 | 17 | 251 | 0.0 | 0.0 | 0.00 | 0.00 | 0.00 | 99 | 1014.6 |
| 20260906061011 | 17 | 251 | 0.0 | 0.0 | 0.00 | 0.00 | 0.00 | 99 | 1014.7 |
| 20260906060508 | 17 | 61 | 0.0 | 0.0 | 0.00 | 0.00 | 0.00 | 99 | 1014.6 |
| 20260906060004 | 17 | 81 | 0.0 | 0.0 | 0.00 | 0.00 | 0.00 | 99 | 1014.6 |
| 20260906055500 | 17 | 226 | 0.0 | 0.0 | 0.00 | 0.00 | 0.00 | 99 | 1014.6 |
| 20260906054955 | 17 | 226 | 0.0 | 0.0 | 0.00 | 0.00 | 0.00 | 99 | 1014.5 |
| 20260906054454 | 17 | 232 | 0.0 | 0.0 | 0.00 | 0.00 | 0.00 | 99 | 1014.6 |
| 20260906053950 | 17 | 254 | 0.0 | 0.0 | 0.00 | 0.00 | 0.00 | 99 | 1014.5 |
| 20260906053446 | 17 | 268 | 0.0 | 0.0 | 0.00 | 0.00 | 0.00 | 99 | 1014.6 |
| 20260906052942 | 17 | 219 | 0.0 | 0.0 | 0.00 | 0.00 | 0.00 | 99 | 1014.6 |
| 20260906052438 | 17 | 244 | 0.0 | 0.0 | 0.00 | 0.00 | 0.00 | 99 | 1014.5 |
| 20260906051934 | 17 | 235 | 0.0 | 0.0 | 0.00 | 0.00 | 0.00 | 99 | 1014.3 |
| 20260906051429 | 17 | 179 | 0.0 | 0.0 | 0.00 | 0.00 | 0.00 | 99 | 1014.3 |
| 20260906050925 | 17 | 114 | 0.0 | 0.0 | 0.00 | 0.00 | 0.00 | 99 | 1014.3 |
| 20260906050425 | 17 | 186 | 0.0 | 0.0 | 0.00 | 0.00 | 0.00 | 99 | 1014.5 |
| 20260906045924 | 18 | 50 | 0.0 | 0.0 | 0.00 | 0.00 | 0.00 | 99 | 1014.5 |
| 20260906045423 | 18 | 255 | 0.0 | 0.0 | 0.00 | 0.00 | 0.00 | 99 | 1014.5 |
| 20260906044920 | 18 | 255 | 0.0 | 0.0 | 0.00 | 0.00 | 0.00 | 99 | 1014.4 |
| 20260906044419 | 18 | 255 | 0.0 | 0.0 | 0.00 | 0.00 | 0.00 | 99 | 1014.9 |
| 20260906043915 | 18 | 258 | 0.0 | 0.0 | 0.00 | 0.00 | 0.00 | 99 | 1014.7 |
| 20260906043411 | 18 | 253 | 0.0 | 0.0 | 0.00 | 0.00 | 0.00 | 99 | 1014.9 |
| 20260906042906 | 18 | 325 | 0.0 | 0.0 | 0.00 | 0.00 | 0.00 | 99 | 1014.8 |
| 20260906042405 | 18 | 264 | 0.0 | 0.0 | 0.00 | 0.00 | 0.00 | 99 | 1014.7 |
| 20260906041901 | 18 | 264 | 0.0 | 0.0 | 0.00 | 0.00 | 0.00 | 99 | 1014.9 |
| 20260906041357 | 18 | 265 | 0.0 | 0.0 | 0.00 | 0.00 | 0.00 | 99 | 1015.0 |
| 20260906040856 | 18 | 334 | 0.0 | 0.0 | 0.00 | 0.00 | 0.00 | 99 | 1015.1 |
| 20260906040352 | 18 | 263 | 0.0 | 0.0 | 0.00 | 0.00 | 0.00 | 99 | 1015.1 |
| 20260906035847 | 18 | 263 | 0.0 | 0.0 | 0.00 | 1.83 | 1.83 | 99 | 1015.1 |
| 20260906035342 | 18 | 263 | 0.0 | 0.0 | 0.00 | 1.83 | 1.83 | 99 | 1015.1 |
| 20260906034837 | 18 | 263 | 0.0 | 0.0 | 0.00 | 1.83 | 1.83 | 99 | 1015.4 |
| 20260906034332 | 18 | 270 | 0.0 | 0.0 | 0.00 | 1.83 | 1.83 | 99 | 1015.4 |
| 20260906033828 | 18 | 338 | 0.0 | 0.0 | 0.00 | 1.83 | 1.83 | 99 | 1015.6 |
| 20260906033327 | 18 | 244 | 0.0 | 0.0 | 0.00 | 1.83 | 1.83 | 99 | 1015.4 |
| 20260906032824 | 18 | 244 | 0.0 | 0.0 | 0.00 | 1.83 | 1.83 | 99 | 1015.4 |
| 20260906032320 | 18 | 247 | 0.0 | 0.0 | 0.00 | 1.83 | 1.83 | 99 | 1015.8 |
| 20260906031814 | 18 | 247 | 0.0 | 0.0 | 0.00 | 1.83 | 1.83 | 99 | 1015.4 |
| 20260906031310 | 18 | 5 | 0.0 | 0.0 | 0.00 | 1.83 | 1.83 | 99 | 1015.6 |
| 20260906030810 | 18 | 15 | 0.0 | 0.0 | 0.30 | 1.83 | 1.83 | 99 | 1015.7 |
| 20260906030305 | 18 | 156 | 0.0 | 0.0 | 1.85 | 1.83 | 1.83 | 99 | 1015.6 |
| 20260906025805 | 18 | 277 | 0.0 | 0.0 | 1.55 | 1.78 | 1.78 | 99 | 1015.4 |
| 20260906025259 | 18 | 113 | 0.0 | 0.0 | 0.00 | 1.52 | 1.52 | 99 | 1015.8 |
| 20260906024758 | 18 | 253 | 0.0 | 0.0 | 0.00 | 1.52 | 1.52 | 99 | 1015.6 |
| 20260906024257 | 18 | 239 | 0.0 | 0.0 | 0.00 | 1.52 | 1.52 | 99 | 1015.6 |
| 20260906023753 | 18 | 239 | 0.0 | 0.0 | 0.00 | 1.52 | 1.52 | 99 | 1015.7 |
| 20260906023248 | 18 | 255 | 0.0 | 0.0 | 0.00 | 1.52 | 1.52 | 99 | 1015.2 |
| 20260906022743 | 18 | 261 | 0.0 | 0.0 | 0.00 | 1.52 | 1.52 | 99 | 1015.2 |
| 20260906022238 | 18 | 249 | 0.0 | 0.0 | 0.00 | 1.52 | 1.52 | 99 | 1015.7 |
| 20260906021735 | 18 | 216 | 0.0 | 0.0 | 0.00 | 1.52 | 1.52 | 99 | 1015.4 |
| 20260906021233 | 18 | 320 | 0.0 | 0.0 | 0.00 | 1.52 | 1.52 | 99 | 1015.2 |
| 20260906020728 | 18 | 319 | 0.0 | 0.0 | 0.00 | 1.52 | 1.52 | 99 | 1015.2 |
| 20260906020223 | 18 | 319 | 0.0 | 0.0 | 0.00 | 1.52 | 1.52 | 99 | 1015.1 |
| 20260906015723 | 18 | 300 | 0.0 | 0.0 | 0.00 | 1.52 | 1.52 | 99 | 1015.2 |
| 20260906015221 | 18 | 299 | 0.0 | 0.0 | 0.00 | 1.52 | 1.52 | 99 | 1015.2 |
| 20260906014716 | 18 | 256 | 0.0 | 0.0 | 0.00 | 1.52 | 1.52 | 99 | 1015.0 |
| 20260906014212 | 18 | 284 | 0.0 | 0.0 | 0.00 | 1.52 | 1.52 | 99 | 1015.0 |
| 20260906013708 | 18 | 287 | 0.0 | 0.0 | 0.00 | 1.52 | 1.52 | 99 | 1015.1 |
| 20260906013208 | 18 | 284 | 0.0 | 0.0 | 0.00 | 1.52 | 1.52 | 99 | 1014.9 |
| 20260906012703 | 18 | 264 | 0.0 | 0.0 | 0.00 | 1.52 | 1.52 | 99 | 1014.9 |
| 20260906012158 | 18 | 283 | 0.0 | 0.0 | 0.00 | 1.52 | 1.52 | 99 | 1015.1 |
| 20260906011654 | 18 | 251 | 0.0 | 0.0 | 0.00 | 1.52 | 1.52 | 99 | 1015.0 |
| 20260906011154 | 18 | 219 | 0.0 | 0.0 | 0.00 | 1.52 | 1.52 | 99 | 1014.9 |
| 20260906010649 | 18 | 219 | 0.0 | 0.0 | 0.00 | 1.52 | 1.52 | 99 | 1014.7 |
| 20260906010146 | 18 | 230 | 0.0 | 0.0 | 0.00 | 1.52 | 1.52 | 99 | 1014.5 |
| 20260906005645 | 18 | 258 | 0.0 | 0.0 | 0.00 | 1.52 | 1.52 | 99 | 1014.6 |
| 20260906005144 | 18 | 260 | 0.0 | 0.0 | 0.00 | 1.52 | 1.52 | 99 | 1014.5 |
| 20260906004643 | 18 | 251 | 0.0 | 0.0 | 0.00 | 1.52 | 1.52 | 99 | 1014.6 |
| 20260906004138 | 19 | 251 | 0.0 | 0.0 | 0.00 | 1.52 | 1.52 | 99 | 1014.4 |
| 20260906003633 | 18 | 289 | 0.0 | 0.0 | 0.00 | 1.52 | 1.52 | 99 | 1014.0 |
| 20260906003129 | 19 | 249 | 0.0 | 0.0 | 0.00 | 1.52 | 1.52 | 99 | 1014.4 |
| 20260906002624 | 19 | 251 | 0.0 | 0.0 | 0.00 | 1.52 | 1.52 | 99 | 1014.3 |
| 20260906002119 | 19 | 257 | 0.0 | 0.0 | 0.00 | 1.52 | 1.52 | 99 | 1014.4 |
| 20260906001614 | 19 | 258 | 0.0 | 0.0 | 0.00 | 1.52 | 1.52 | 99 | 1014.3 |
| 20260906001108 | 19 | 236 | 0.0 | 0.0 | 0.00 | 1.52 | 1.52 | 99 | 1014.3 |
| 20260906000604 | 20 | 222 | 0.0 | 0.0 | 0.00 | 1.52 | 1.52 | 99 | 1014.5 |
| 20260906000059 | 20 | 247 | 0.0 | 0.0 | 0.00 | 1.52 | 1.52 | 99 | 1014.4 |
| 20260905235558 | 20 | 273 | 0.0 | 0.0 | 0.00 | 1.52 | 1.52 | 99 | 1014.3 |
| 20260905235054 | 20 | 228 | 0.0 | 0.0 | 0.00 | 1.52 | 1.52 | 99 | 1014.4 |
| 20260905234549 | 20 | 220 | 0.0 | 0.0 | 0.00 | 1.52 | 1.52 | 99 | 1014.6 |
| 20260905234044 | 20 | 246 | 0.0 | 0.0 | 0.00 | 1.52 | 1.52 | 98 | 1014.5 |
| 20260905233538 | 21 | 259 | 0.0 | 0.0 | 0.00 | 1.52 | 1.52 | 96 | 1014.5 |
| 20260905233038 | 21 | 259 | 0.0 | 0.0 | 0.00 | 1.52 | 1.52 | 96 | 1014.5 |
| 20260905232533 | 21 | 302 | 0.0 | 0.0 | 0.00 | 1.52 | 1.52 | 95 | 1014.6 |
| 20260905232029 | 21 | 248 | 0.0 | 0.0 | 0.00 | 1.52 | 1.52 | 95 | 1014.4 |
| 20260905231524 | 21 | 308 | 0.0 | 0.0 | 0.00 | 1.52 | 1.52 | 95 | 1014.4 |
| 20260905231021 | 21 | 238 | 0.0 | 0.0 | 0.00 | 1.52 | 1.52 | 95 | 1014.5 |
| 20260905230519 | 22 | 302 | 0.0 | 0.0 | 0.00 | 1.52 | 1.52 | 92 | 1014.7 |
| 20260905230018 | 22 | 302 | 0.0 | 0.0 | 0.00 | 1.52 | 1.52 | 92 | 1014.7 |
| 20260905225513 | 22 | 217 | 0.0 | 0.0 | 0.00 | 1.52 | 1.52 | 93 | 1014.7 |
| 20260905225008 | 22 | 234 | 0.0 | 0.0 | 0.00 | 1.52 | 1.52 | 91 | 1014.7 |
| 20260905224118 | 22 | 209 | 0.0 | 0.0 | 0.00 | 1.52 | 1.52 | 90 | 1014.7 |
| 20260905223616 | 22 | 209 | 0.0 | 0.0 | 0.00 | 1.52 | 1.52 | 90 | 1014.7 |
| 20260905223113 | 22 | 218 | 0.0 | 0.0 | 0.00 | 1.52 | 1.52 | 90 | 1014.6 |
| 20260905222612 | 23 | 176 | 0.0 | 0.0 | 0.00 | 1.52 | 1.52 | 86 | 1014.9 |
| 20260905222107 | 23 | 176 | 0.0 | 0.0 | 0.00 | 1.52 | 1.52 | 86 | 1014.9 |
| 20260905221603 | 22 | 199 | 0.0 | 0.0 | 0.00 | 1.52 | 1.52 | 88 | 1014.7 |
| 20260905221059 | 23 | 221 | 1.6 | 1.6 | 0.00 | 1.52 | 1.52 | 88 | 1014.5 |
| 20260905220554 | 23 | 103 | 1.6 | 4.8 | 0.00 | 1.52 | 1.52 | 81 | 1014.4 |
| 20260905220051 | 22 | 103 | 3.2 | 4.8 | 0.00 | 1.52 | 1.52 | 83 | 1014.5 |
| 20260905215550 | 22 | 190 | 0.0 | 0.0 | 0.00 | 1.52 | 1.52 | 88 | 1014.7 |
| 20260905215046 | 23 | 175 | 0.0 | 0.0 | 0.00 | 1.52 | 1.52 | 84 | 1014.3 |
| 20260905214542 | 23 | 142 | 0.0 | 0.0 | 0.00 | 1.52 | 1.52 | 83 | 1014.3 |
| 20260905214037 | 25 | 121 | 1.6 | 3.2 | 0.00 | 1.52 | 1.52 | 79 | 1014.3 |
| 20260905213532 | 25 | 133 | 1.6 | 3.2 | 0.00 | 1.52 | 1.52 | 76 | 1014.5 |
| 20260905213027 | 25 | 131 | 6.4 | 9.7 | 0.00 | 1.52 | 1.52 | 75 | 1014.3 |
| 20260905212522 | 25 | 131 | 6.4 | 9.7 | 0.00 | 1.52 | 1.52 | 75 | 1014.3 |
| 20260905212021 | 26 | 84 | 3.2 | 4.8 | 0.00 | 1.52 | 1.52 | 74 | 1014.3 |
| 20260905211517 | 25 | 106 | 0.0 | 3.2 | 0.00 | 1.52 | 1.52 | 74 | 1013.9 |
| 20260905211013 | 26 | 109 | 4.8 | 6.4 | 0.00 | 1.52 | 1.52 | 73 | 1013.9 |
| 20260905210508 | 25 | 116 | 3.2 | 3.2 | 0.00 | 1.52 | 1.52 | 75 | 1013.7 |
| 20260905210008 | 26 | 91 | 4.8 | 4.8 | 0.00 | 1.52 | 1.52 | 74 | 1013.7 |
| 20260905205502 | 25 | 130 | 1.6 | 4.8 | 0.00 | 1.52 | 1.52 | 76 | 1013.7 |
| 20260905205001 | 23 | 114 | 3.2 | 4.8 | 0.00 | 1.52 | 1.52 | 78 | 1013.7 |
| 20260905204457 | 25 | 122 | 4.8 | 6.4 | 0.00 | 1.52 | 1.52 | 75 | 1013.9 |
| 20260905203956 | 25 | 122 | 4.8 | 6.4 | 0.00 | 1.52 | 1.52 | 75 | 1013.9 |
| 20260905203451 | 25 | 122 | 4.8 | 6.4 | 0.00 | 1.52 | 1.52 | 75 | 1013.9 |
| 20260905202947 | 25 | 103 | 6.4 | 6.4 | 0.00 | 1.52 | 1.52 | 76 | 1013.5 |
| 20260905202442 | 25 | 123 | 4.8 | 6.4 | 0.00 | 1.52 | 1.52 | 76 | 1013.6 |
| 20260905201937 | 24 | 90 | 1.6 | 9.7 | 0.00 | 1.52 | 1.52 | 76 | 1013.9 |
| 20260905201432 | 24 | 90 | 1.6 | 9.7 | 0.00 | 1.52 | 1.52 | 76 | 1013.9 |
| 20260905200833 | 24 | 119 | 6.4 | 9.7 | 0.00 | 1.52 | 1.52 | 77 | 1013.7 |
| 20260905200330 | 24 | 119 | 6.4 | 9.7 | 0.00 | 1.52 | 1.52 | 77 | 1013.7 |
| 20260905195828 | 25 | 114 | 6.4 | 6.4 | 0.00 | 1.52 | 1.52 | 75 | 1014.0 |
| 20260905195323 | 25 | 93 | 4.8 | 6.4 | 0.00 | 1.52 | 1.52 | 74 | 1014.3 |
| 20260905194819 | 25 | 172 | 1.6 | 6.4 | 0.00 | 1.52 | 1.52 | 73 | 1014.3 |
| 20260905194318 | 25 | 172 | 1.6 | 6.4 | 0.00 | 1.52 | 1.52 | 73 | 1014.3 |
| 20260905193817 | 25 | 90 | 6.4 | 9.7 | 0.00 | 1.52 | 1.52 | 74 | 1013.9 |
| 20260905193313 | 25 | 105 | 6.4 | 6.4 | 0.00 | 1.52 | 1.52 | 76 | 1014.5 |
| 20260905192808 | 25 | 105 | 6.4 | 6.4 | 0.00 | 1.52 | 1.52 | 76 | 1014.5 |
| 20260905192306 | 25 | 116 | 6.4 | 11.3 | 0.00 | 1.52 | 1.52 | 75 | 1014.6 |
| 20260905191803 | 25 | 116 | 6.4 | 11.3 | 0.00 | 1.52 | 1.52 | 75 | 1014.6 |
| 20260905191302 | 25 | 104 | 6.4 | 9.7 | 0.00 | 1.52 | 1.52 | 72 | 1014.6 |
| 20260905190801 | 25 | 124 | 6.4 | 6.4 | 0.00 | 1.52 | 1.52 | 76 | 1014.8 |
| 20260905190300 | 25 | 129 | 6.4 | 9.7 | 0.00 | 1.52 | 1.52 | 76 | 1014.9 |
| 20260905185759 | 25 | 90 | 3.2 | 6.4 | 0.00 | 1.52 | 1.52 | 77 | 1015.0 |
| 20260905185255 | 25 | 90 | 3.2 | 6.4 | 0.00 | 1.52 | 1.52 | 77 | 1015.0 |
| 20260905184754 | 25 | 99 | 3.2 | 9.7 | 0.00 | 1.52 | 1.52 | 75 | 1014.8 |
| 20260905184247 | 24 | 113 | 1.6 | 1.6 | 0.00 | 1.52 | 1.52 | 78 | 1015.1 |
| 20260905183741 | 24 | 96 | 4.8 | 9.7 | 0.00 | 1.52 | 1.52 | 81 | 1015.0 |
| 20260905183237 | 24 | 96 | 1.6 | 4.8 | 0.00 | 1.52 | 1.52 | 82 | 1015.0 |
| 20260905182736 | 24 | 112 | 3.2 | 6.4 | 0.00 | 1.52 | 1.52 | 80 | 1015.1 |
| 20260905182236 | 24 | 111 | 1.6 | 3.2 | 0.00 | 1.52 | 1.52 | 77 | 1015.1 |
| 20260905181731 | 24 | 111 | 1.6 | 3.2 | 0.00 | 1.52 | 1.52 | 77 | 1015.1 |
| 20260905181230 | 24 | 147 | 1.6 | 3.2 | 0.00 | 1.52 | 1.52 | 83 | 1015.1 |
| 20260905180725 | 24 | 147 | 1.6 | 3.2 | 0.00 | 1.52 | 1.52 | 83 | 1015.1 |
| 20260905180220 | 24 | 110 | 3.2 | 4.8 | 0.00 | 1.52 | 1.52 | 82 | 1015.6 |
| 20260905175720 | 23 | 135 | 1.6 | 6.4 | 0.00 | 1.52 | 1.52 | 82 | 1015.6 |
| 20260905175215 | 23 | 119 | 0.0 | 3.2 | 0.00 | 1.52 | 1.52 | 85 | 1015.4 |
| 20260905174710 | 22 | 120 | 3.2 | 9.7 | 0.00 | 1.52 | 1.52 | 86 | 1015.7 |
| 20260905174206 | 22 | 121 | 6.4 | 9.7 | 0.00 | 1.52 | 1.52 | 86 | 1015.9 |
| 20260905173702 | 22 | 110 | 4.8 | 4.8 | 0.00 | 1.52 | 1.52 | 89 | 1015.8 |
| 20260905173157 | 23 | 117 | 4.8 | 9.7 | 0.00 | 1.52 | 1.52 | 88 | 1015.8 |
| 20260905172657 | 23 | 125 | 3.2 | 6.4 | 0.00 | 1.52 | 1.52 | 86 | 1015.8 |
| 20260905172151 | 23 | 129 | 6.4 | 9.7 | 0.00 | 1.52 | 1.52 | 87 | 1015.8 |
| 20260905171647 | 23 | 114 | 3.2 | 4.8 | 0.00 | 1.52 | 1.52 | 89 | 1016.0 |
| 20260905171143 | 22 | 112 | 3.2 | 4.8 | 0.00 | 1.52 | 1.52 | 89 | 1016.1 |
| 20260905170640 | 23 | 102 | 6.4 | 9.7 | 0.00 | 1.52 | 1.52 | 88 | 1015.9 |
| 20260905170135 | 23 | 116 | 6.4 | 9.7 | 0.00 | 1.52 | 1.52 | 86 | 1016.0 |
| 20260905165635 | 23 | 110 | 3.2 | 3.2 | 0.00 | 1.52 | 1.52 | 87 | 1015.9 |
| 20260905165130 | 23 | 130 | 9.7 | 12.9 | 0.00 | 1.52 | 1.52 | 87 | 1015.9 |
| 20260905164625 | 22 | 148 | 6.4 | 9.7 | 0.00 | 1.52 | 1.52 | 90 | 1016.2 |
| 20260905164124 | 22 | 116 | 6.4 | 9.7 | 0.00 | 1.52 | 1.52 | 93 | 1016.1 |
| 20260905163620 | 22 | 164 | 0.0 | 1.6 | 0.00 | 1.52 | 1.52 | 94 | 1016.0 |
| 20260905163116 | 22 | 112 | 4.8 | 6.4 | 0.00 | 1.52 | 1.52 | 93 | 1016.1 |
| 20260905162613 | 22 | 96 | 3.2 | 4.8 | 0.00 | 1.52 | 1.52 | 94 | 1016.0 |
| 20260905162111 | 22 | 93 | 4.8 | 9.7 | 0.00 | 1.52 | 1.52 | 92 | 1016.2 |
| 20260905161611 | 22 | 118 | 1.6 | 3.2 | 0.00 | 1.52 | 1.52 | 95 | 1016.2 |
| 20260905161110 | 22 | 125 | 3.2 | 3.2 | 0.00 | 1.52 | 1.52 | 95 | 1016.0 |
| 20260905160609 | 22 | 119 | 3.2 | 6.4 | 0.00 | 1.52 | 1.52 | 94 | 1016.1 |
| 20260905160109 | 22 | 99 | 1.6 | 6.4 | 0.00 | 1.52 | 1.52 | 95 | 1015.8 |
| 20260905155604 | 21 | 60 | 1.6 | 1.6 | 0.00 | 1.52 | 1.52 | 95 | 1015.7 |
| 20260905155102 | 21 | 84 | 0.0 | 1.6 | 0.00 | 1.52 | 1.52 | 97 | 1015.4 |
| 20260905154557 | 21 | 257 | 0.0 | 0.0 | 0.00 | 1.52 | 1.52 | 99 | 1015.0 |
| 20260905154052 | 21 | 23 | 0.0 | 4.8 | 0.00 | 1.52 | 1.52 | 99 | 1015.1 |
| 20260905153548 | 20 | 149 | 0.0 | 3.2 | 0.00 | 1.52 | 1.52 | 99 | 1015.6 |
| 20260905153048 | 20 | 79 | 0.0 | 1.6 | 0.00 | 1.52 | 1.52 | 99 | 1015.3 |
| 20260905152543 | 20 | 121 | 1.6 | 3.2 | 0.00 | 1.52 | 1.52 | 99 | 1015.6 |
| 20260905152038 | 20 | 66 | 1.6 | 1.6 | 0.00 | 1.52 | 1.52 | 99 | 1015.2 |
| 20260905151533 | 19 | 40 | 0.0 | 0.0 | 0.00 | 1.52 | 1.52 | 99 | 1015.2 |
| 20260905151028 | 19 | 90 | 0.0 | 1.6 | 0.00 | 1.52 | 1.52 | 99 | 1014.9 |
| 20260905150523 | 18 | 257 | 3.2 | 4.8 | 0.00 | 1.52 | 1.52 | 99 | 1014.6 |
| 20260905150022 | 18 | 295 | 4.8 | 4.8 | 0.00 | 1.52 | 1.52 | 99 | 1015.1 |
| 20260905145521 | 18 | 268 | 0.0 | 0.0 | 0.00 | 1.52 | 1.52 | 99 | 1015.7 |
| 20260905145020 | 18 | 258 | 0.0 | 0.0 | 0.00 | 1.52 | 1.52 | 99 | 1015.9 |
| 20260905144515 | 18 | 233 | 0.0 | 0.0 | 0.00 | 1.52 | 1.52 | 99 | 1016.2 |
| 20260905144014 | 18 | 312 | 0.0 | 0.0 | 0.13 | 1.52 | 1.52 | 99 | 1016.6 |
| 20260905143514 | 18 | 219 | 0.0 | 0.0 | 0.13 | 1.52 | 1.52 | 99 | 1016.8 |
| 20260905143009 | 18 | 242 | 0.0 | 0.0 | 0.00 | 1.50 | 1.50 | 99 | 1016.9 |
| 20260905142507 | 18 | 277 | 0.0 | 0.0 | 0.00 | 1.50 | 1.50 | 99 | 1017.2 |
| 20260905142004 | 18 | 67 | 0.0 | 0.0 | 0.18 | 1.50 | 1.50 | 99 | 1017.2 |
| 20260905141503 | 18 | 185 | 0.0 | 1.6 | 0.18 | 1.50 | 1.50 | 99 | 1016.9 |
| 20260905141000 | 18 | 294 | 0.0 | 0.0 | 0.00 | 1.47 | 1.47 | 99 | 1017.1 |
| 20260905140454 | 18 | 301 | 0.0 | 0.0 | 0.00 | 1.47 | 1.47 | 99 | 1017.1 |
| 20260905135953 | 18 | 278 | 0.0 | 0.0 | 0.00 | 1.47 | 1.47 | 99 | 1017.1 |
| 20260905135449 | 18 | 313 | 0.0 | 0.0 | 0.00 | 1.47 | 1.47 | 99 | 1017.4 |
| 20260905134944 | 18 | 240 | 0.0 | 0.0 | 0.00 | 1.47 | 1.47 | 99 | 1017.1 |
| 20260905134443 | 18 | 273 | 0.0 | 0.0 | 0.00 | 1.47 | 1.47 | 99 | 1017.3 |
| 20260905133942 | 18 | 266 | 1.6 | 1.6 | 0.13 | 1.47 | 1.47 | 99 | 1017.2 |
| 20260905133438 | 18 | 236 | 1.6 | 1.6 | 0.13 | 1.47 | 1.47 | 99 | 1017.3 |
| 20260905132937 | 18 | 227 | 0.0 | 3.2 | 0.18 | 1.45 | 1.45 | 99 | 1017.2 |
| 20260905132433 | 18 | 257 | 3.2 | 4.8 | 0.97 | 1.45 | 1.45 | 99 | 1016.9 |
| 20260905131927 | 18 | 31 | 0.0 | 1.6 | 0.89 | 1.42 | 1.42 | 99 | 1017.6 |
| 20260905131424 | 18 | 190 | 1.6 | 3.2 | 0.18 | 1.27 | 1.27 | 99 | 1017.7 |
| 20260905130924 | 18 | 248 | 0.0 | 0.0 | 0.30 | 1.27 | 1.27 | 99 | 1017.8 |
| 20260905130423 | 18 | 201 | 1.6 | 1.6 | 0.43 | 1.24 | 1.24 | 99 | 1017.9 |
| 20260905125923 | 18 | 147 | 1.6 | 4.8 | 0.97 | 1.22 | 1.22 | 99 | 1017.9 |
| 20260905125418 | 18 | 109 | 8.0 | 11.3 | 1.19 | 1.09 | 1.09 | 99 | 1018.0 |
| 20260905124914 | 18 | 109 | 0.0 | 4.8 | 1.98 | 1.04 | 1.04 | 99 | 1017.8 |
| 20260905124410 | 18 | 344 | 9.7 | 14.5 | 1.27 | 0.84 | 0.84 | 99 | 1017.9 |
| 20260905123910 | 18 | 132 | 12.9 | 17.7 | 2.11 | 0.69 | 0.69 | 99 | 1017.4 |
| 20260905123407 | 18 | 110 | 14.5 | 24.1 | 1.37 | 0.51 | 0.51 | 99 | 1016.9 |